{"data":{"norad_id":64808,"epoch":"2026-09-20T13:13:33.273120Z","epoch_age_seconds":123197,"freshness":"FRESH","line1":"1 64808U 25150U   26263.55107955  .00002695  00000+0  23353-3 0  9995","line2":"2 64808  70.0026   3.1996 0003849 266.7769  93.2950 14.98336153 65707","mean_motion":14.98336153,"eccentricity":0.0003849,"inclination_deg":70.0026,"raan_deg":3.1996,"arg_perigee_deg":266.7769,"mean_anomaly_deg":93.295,"bstar":0.00023353,"rev_number":6570,"period_min":96.106604457004,"perigee_km":569.36174144458,"apogee_km":574.7119852846,"semimajor_km":6950.1738633646,"source":"CELESTRAK","updated_at":"2026-09-21T09:00:35.446347Z"}}